sat.trackr.live / text

‹ back to catalog

INNOCUBE (TUBSAT-31)

NORAD 62616 · 2025-009H

PAYLOAD ACTIVE UNKNOWN

§ Identity

Operator
Country
GER
Launch date
2025-01-14
Launch site
AFWTR
Launch vehicle
Mass (kg)
RCS (m²)

External: N2YO · Heavens-Above · Gunter

§ Orbital elements

Epoch: 2026-09-22T17:16:04.355904Z

Period
94.26 min
Inclination
97.3845°
Eccentricity
0.0005441
Mean motion
15.27676690 rev/d
Perigee alt
479.0 km
Apogee alt
486.5 km
Semi-major
6,860.9 km
B*
1.8790e-4
RAAN
344.7345°
Arg perigee
4.0953°
Mean anomaly
356.0330°
Rev number
9,370

§ Raw data

INNOCUBE (TUBSAT-31)1 62616U 25009H   26265.71949486  .00005010  00000+0  18790-3 0  99992 62616  97.3845 344.7345 0005441   4.0953 356.0330 15.27676690 93702

JSON: /api/v1/satellites/62616 · /tle

For live sub-satellite position, see the globe view (requires WebGL).

§ Visibility from observer

Set your observer location to see the next 7 days of passes ≥ 10°. The values pass through the URL so the page stays shareable.

No JS? Fill the form by hand. The geolocation button needs JavaScript.

§ Radio — SatNOGS DB

ModeDescriptionDownlinkUplink
CW Mode U - CW 437.020 MHz
MSK AX.100 Mode 5 Mode U - GMSK9k6 - TLM 435.950 MHz
SSTV Mode U SSTV (Scottie DX) (inactive) 437.020 MHz

3 transmitters · refreshed weekly from db.satnogs.org